LUSAT (LO-19)

Last updated on Sun Aug 09 2026 00:03:15 GMT+0000 (Coordinated Universal Time)

1 20442U 90005G 26220.29891852 .00000031 00000+0 27881-4 0 9995 2 20442 98.8845 243.5376 0012472 56.7287 303.5090 14.34136447909866
UTC large
Height (km)
Speed (km/s)
/
Latitude / Longitude
Inclination (degrees)
Orbital Period (minutes)
Azimuth
Elevation
Range (km)
Doppler Factor

Next 0 passes for location: London (51.5072 / 0.1276)

No passes found over London.
LUSAT (LO-19)